Location: Misciano
(43.5000°N, 11.9500°E)
Time: 16:29:20
(UTC+00:00)

IGS 5A - Pass Details

Date: 13 August 2020
Orbit: 583 x 588 km, 97.6° (Epoch: 17 September)

Event Time Altitude Azimuth Distance (km) Brightness Sun altitude
Exits shadow 20:15:57 42° 161° (SSE) 850 3.8 -18.9°
Maximum altitude 20:17:20 85° 77° (ENE) 597 3.3 -19.1°
Drops below altitude 10° 20:21:31 10° 349° (N) 1,924 6.9 -19.7°
Sets 20:23:41 0° 349° (NNW) 2,829 7.9 -19.9°
